This demonstration page uses our WeatherBlox Daily Observations layout. Learn more.

Left ArrowRight Arrow

Hourly Observations for July 14, 2021

Temp ( °F °C ) Dew Point ( °F °C ) Humidity (%) Winds ( mph kmh ) Pressure ( in mb ) Visibility ( mi km ) Precip ( " mm )
12:53 am 00:53 Clear 77 25 58 14.4 52 52 SSE 13 20 30.02 1017 10 16 0.00 0.00
1:53 am 01:53 Clear 75 23.9 62 16.7 64 64 SE 17 28 30.02 1017 10 16 0.00 0.00
2:53 am 02:53 Clear 73 22.8 60 15.6 64 64 SE 12 19 30.02 1017 10 16 0.00 0.00
3:53 am 03:53 Clear 71 21.7 61 16.1 71 71 SE 17 28 30.01 1016 10 16 0.00 0.00
4:53 am 04:53 Clear 69 20.6 63 17.2 81 81 SE 12 19 30.00 1016 10 16 0.00 0.00
5:53 am 05:53 Clear 69 20.6 63 17.2 81 81 ESE 10 17 30.00 1016 10 16 0.00 0.00
6:53 am 06:53 Clear 68 20 64 17.8 87 87 ESE 10 17 29.99 1016 10 16 0.00 0.00
7:53 am 07:53 Sunny 69 20.6 64 17.8 84 84 ESE 13 20 30.00 1016 10 16 0.00 0.00
8:53 am 08:53 Sunny 73 22.8 64 17.8 74 74 SE 21 33 30.00 1016 10 16 0.00 0.00
9:53 am 09:53 undefined 76 24.4 64 17.8 67 67 SE 18 30 30.00 1016 10 16 0.00 0.00
10:53 am 10:53 Sunny 80 26.7 64 17.8 58 58 SSE 15 24 30.00 1016 10 16 0.00 0.00
11:53 am 11:53 Sunny 82 27.8 63 17.2 53 53 SE 16 26 30.00 1016 10 16 0.00 0.00
12:53 pm 12:53 undefined 85 29.4 62 16.7 46 46 SSE 13 20 29.98 1015 10 16 0.00 0.00
1:53 pm 13:53 Sunny 88 31.1 62 16.7 42 42 SSE 14 22 29.95 1014 10 16 0.00 0.00
2:53 pm 14:53 Sunny 92 33.3 59 15 33 33 SSE 17 28 29.93 1013 10 16 0.00 0.00
3:53 pm 15:53 Sunny 93 33.9 56 13.3 29 29 SSE 9 15 29.91 1013 10 16 0.00 0.00
4:53 pm 16:53 Sunny 95 35 53 11.7 24 24 SSW 14 22 29.88 1012 10 16 0.00 0.00
5:53 pm 17:53 Mostly Sunny 94 34.4 55 12.8 27 27 S 14 22 29.87 1011 10 16 0.00 0.00
6:53 pm 18:53 Sunny 93 33.9 57 13.9 30 30 SE 20 31 29.85 1011 10 16 0.00 0.00
7:53 pm 19:53 Sunny 91 32.8 56 13.3 31 31 SE 18 30 29.85 1011 10 16 0.00 0.00
8:53 pm 20:53 Sunny 88 31.1 56 13.3 34 34 SE 17 28 29.86 1011 10 16 0.00 0.00
9:53 pm 21:53 Clear 85 29.4 58 14.4 40 40 SSE 16 26 29.88 1012 10 16 0.00 0.00
10:53 pm 22:53 Clear 83 28.3 59 15 44 44 SSE 17 28 29.90 1013 10 16 0.00 0.00
11:53 pm 23:53 Clear 81 27.2 60 15.6 49 49 SSE 22 35 29.92 1013 10 16 0.00 0.00

Powered by AerisWeather